<?xml version="1.0"?>
<gpx xmlns="http://www.topografix.com/GPX/1/1" xmlns:xsi="http://www.w3.org/2001/XMLSchema-instance" version="1.1" creator="GPX RubyGem 1.0.0 -- http://dougfales.github.io/gpx/" xsi:schemaLocation="http://www.topografix.com/GPX/1/1 http://www.topografix.com/GPX/1/1/gpx.xsd">
  <metadata>
    <name/>
    <time>2026-05-09T19:03:31+00:00</time>
    <bound minlat="90.0" minlon="180.0" maxlat="-90.0" maxlon="-180.0"/>
  </metadata>
  <trk>
    <name/>
    <trkseg>
      <trkpt lat="49.031142" lon="8.439797">
        <time>1970-01-01T00:00:00+00:00</time>
        <ele>116.0</ele>
      </trkpt>
      <trkpt lat="49.031195" lon="8.439817">
        <time>1970-01-01T00:00:00+00:00</time>
        <ele>116.0</ele>
      </trkpt>
      <trkpt lat="49.031251" lon="8.439479">
        <time>1970-01-01T00:00:00+00:00</time>
        <ele>117.0</ele>
      </trkpt>
      <trkpt lat="49.031296" lon="8.439206">
        <time>1970-01-01T00:00:00+00:00</time>
        <ele>118.0</ele>
      </trkpt>
      <trkpt lat="49.031516" lon="8.438761">
        <time>1970-01-01T00:00:00+00:00</time>
        <ele>116.0</ele>
      </trkpt>
      <trkpt lat="49.031542" lon="8.438789">
        <time>1970-01-01T00:00:00+00:00</time>
        <ele>116.0</ele>
      </trkpt>
      <trkpt lat="49.031671" lon="8.438549">
        <time>1970-01-01T00:00:00+00:00</time>
        <ele>118.0</ele>
      </trkpt>
      <trkpt lat="49.031803" lon="8.438421">
        <time>1970-01-01T00:00:00+00:00</time>
        <ele>120.0</ele>
      </trkpt>
      <trkpt lat="49.031898" lon="8.437602">
        <time>1970-01-01T00:00:00+00:00</time>
        <ele>123.0</ele>
      </trkpt>
      <trkpt lat="49.032023" lon="8.436798">
        <time>1970-01-01T00:00:00+00:00</time>
        <ele>124.0</ele>
      </trkpt>
      <trkpt lat="49.032129" lon="8.436016">
        <time>1970-01-01T00:00:00+00:00</time>
        <ele>126.0</ele>
      </trkpt>
      <trkpt lat="49.03227" lon="8.435167">
        <time>1970-01-01T00:00:00+00:00</time>
        <ele>124.0</ele>
      </trkpt>
      <trkpt lat="49.031844" lon="8.434995">
        <time>1970-01-01T00:00:00+00:00</time>
        <ele>120.0</ele>
      </trkpt>
      <trkpt lat="49.031647" lon="8.434904">
        <time>1970-01-01T00:00:00+00:00</time>
        <ele>118.0</ele>
      </trkpt>
      <trkpt lat="49.031602" lon="8.434776">
        <time>1970-01-01T00:00:00+00:00</time>
        <ele>118.0</ele>
      </trkpt>
      <trkpt lat="49.031466" lon="8.43475">
        <time>1970-01-01T00:00:00+00:00</time>
        <ele>118.0</ele>
      </trkpt>
      <trkpt lat="49.030992" lon="8.434485">
        <time>1970-01-01T00:00:00+00:00</time>
        <ele>117.0</ele>
      </trkpt>
      <trkpt lat="49.030778" lon="8.434383">
        <time>1970-01-01T00:00:00+00:00</time>
        <ele>116.0</ele>
      </trkpt>
      <trkpt lat="49.02984" lon="8.433875">
        <time>1970-01-01T00:00:00+00:00</time>
        <ele>114.0</ele>
      </trkpt>
      <trkpt lat="49.02984" lon="8.433875">
        <time>1970-01-01T00:00:00+00:00</time>
        <ele>114.0</ele>
      </trkpt>
      <trkpt lat="49.029605" lon="8.433748">
        <time>1970-01-01T00:00:00+00:00</time>
        <ele>114.0</ele>
      </trkpt>
      <trkpt lat="49.029324" lon="8.433689">
        <time>1970-01-01T00:00:00+00:00</time>
        <ele>116.0</ele>
      </trkpt>
      <trkpt lat="49.028643" lon="8.433807">
        <time>1970-01-01T00:00:00+00:00</time>
        <ele>117.0</ele>
      </trkpt>
      <trkpt lat="49.028453" lon="8.43385">
        <time>1970-01-01T00:00:00+00:00</time>
        <ele>117.0</ele>
      </trkpt>
      <trkpt lat="49.028456" lon="8.434086">
        <time>1970-01-01T00:00:00+00:00</time>
        <ele>117.0</ele>
      </trkpt>
      <trkpt lat="49.028458" lon="8.434155">
        <time>1970-01-01T00:00:00+00:00</time>
        <ele>117.0</ele>
      </trkpt>
      <trkpt lat="49.028463" lon="8.434441">
        <time>1970-01-01T00:00:00+00:00</time>
        <ele>117.0</ele>
      </trkpt>
      <trkpt lat="49.028466" lon="8.434937">
        <time>1970-01-01T00:00:00+00:00</time>
        <ele>117.0</ele>
      </trkpt>
      <trkpt lat="49.028449" lon="8.435614">
        <time>1970-01-01T00:00:00+00:00</time>
        <ele>118.0</ele>
      </trkpt>
      <trkpt lat="49.028446" lon="8.435893">
        <time>1970-01-01T00:00:00+00:00</time>
        <ele>118.0</ele>
      </trkpt>
      <trkpt lat="49.02845" lon="8.436226">
        <time>1970-01-01T00:00:00+00:00</time>
        <ele>119.0</ele>
      </trkpt>
      <trkpt lat="49.02845" lon="8.436537">
        <time>1970-01-01T00:00:00+00:00</time>
        <ele>120.0</ele>
      </trkpt>
      <trkpt lat="49.028453" lon="8.437061">
        <time>1970-01-01T00:00:00+00:00</time>
        <ele>123.0</ele>
      </trkpt>
      <trkpt lat="49.028453" lon="8.437433">
        <time>1970-01-01T00:00:00+00:00</time>
        <ele>122.0</ele>
      </trkpt>
      <trkpt lat="49.028452" lon="8.437485">
        <time>1970-01-01T00:00:00+00:00</time>
        <ele>122.0</ele>
      </trkpt>
      <trkpt lat="49.028452" lon="8.437765">
        <time>1970-01-01T00:00:00+00:00</time>
        <ele>119.0</ele>
      </trkpt>
      <trkpt lat="49.028453" lon="8.437972">
        <time>1970-01-01T00:00:00+00:00</time>
        <ele>117.0</ele>
      </trkpt>
      <trkpt lat="49.028452" lon="8.438095">
        <time>1970-01-01T00:00:00+00:00</time>
        <ele>117.0</ele>
      </trkpt>
      <trkpt lat="49.02918" lon="8.43821">
        <time>1970-01-01T00:00:00+00:00</time>
        <ele>124.0</ele>
      </trkpt>
      <trkpt lat="49.029744" lon="8.438338">
        <time>1970-01-01T00:00:00+00:00</time>
        <ele>119.0</ele>
      </trkpt>
      <trkpt lat="49.030213" lon="8.438439">
        <time>1970-01-01T00:00:00+00:00</time>
        <ele>120.0</ele>
      </trkpt>
      <trkpt lat="49.030507" lon="8.438715">
        <time>1970-01-01T00:00:00+00:00</time>
        <ele>120.0</ele>
      </trkpt>
      <trkpt lat="49.030946" lon="8.43923">
        <time>1970-01-01T00:00:00+00:00</time>
        <ele>121.0</ele>
      </trkpt>
      <trkpt lat="49.031058" lon="8.439256">
        <time>1970-01-01T00:00:00+00:00</time>
        <ele>120.0</ele>
      </trkpt>
      <trkpt lat="49.031088" lon="8.439294">
        <time>1970-01-01T00:00:00+00:00</time>
        <ele>119.0</ele>
      </trkpt>
      <trkpt lat="49.031177" lon="8.439407">
        <time>1970-01-01T00:00:00+00:00</time>
        <ele>118.0</ele>
      </trkpt>
      <trkpt lat="49.031136" lon="8.439673">
        <time>1970-01-01T00:00:00+00:00</time>
        <ele>116.0</ele>
      </trkpt>
      <trkpt lat="49.031118" lon="8.439788">
        <time>1970-01-01T00:00:00+00:00</time>
        <ele>116.0</ele>
      </trkpt>
      <trkpt lat="49.031142" lon="8.439797">
        <time>1970-01-01T00:00:00+00:00</time>
        <ele>116.0</ele>
      </trkpt>
    </trkseg>
  </trk>
</gpx>
